Погода в Малыгине

Россия / Владимирская область     56°24′47″N   41°09′32″E
темп.,
°C
ветер,
м/с
пор.,
м/с
влажн.,
%
обл.,
%
осадки,
мм/ч
давл.,
гПа
погр.,
м
22 января, сб
сб2200:00−7юв51293100 0.2 1004552
03:00−7юв4119398 0.3 1005397
06:00−9вюв41194100 0.1 1007395
09:00−8вюв41194100 0.1 1009442
12:00−8вюв4994100 0.1 1011399
15:00−6в4994100 0.1 1012480
18:00−7в4995100 0.2 1014361
21:00−8вюв379575 0.4 1016227
23 января, вс
вс2300:00−13в229984 0.1 101935
03:00−13в119876 0.1 102125
06:00−18в1110094 0.0 10239
09:00−17юв1110087 0.1 102611
12:00−10вюв019593 0.0 1029105
15:00−9всв009761 0.1 103010
18:00−16всв1110076 0.0 10339
21:00−19ссв11100100 0.0 10369
24 января, пн
пн2400:00−20св11100100 0.0 10379
03:00−21ссв11100100 0.0 10389
06:00−22с11100100 0.0 103911
09:00−22в11100100 0.1 10409
12:00−11вюв129472 0.0 1039103
15:00−9ссв119612 0.0 103834
18:00−17в1110088 0.0 10389
21:00−18юв11100100 0.0 103710
25 января, вт
вт2500:00−18ююв11100100 0.0 10369
03:00−19юв11100100 0.1 10339
06:00−20ююв2210076 0.0 103124
09:00−20ю11100100 0.0 102913
12:00−10ю26905 0.0 1027212
15:00−8ююв24935 0.0 1025153
18:00−14ююв259863 0.0 102376
21:00−14ююв249897 0.0 102262
26 января, ср
ср2600:00−11ююв289698 0.2 1021247
03:00−11ююв389695 0.3 1021217
06:00−14юв259869 0.1 102092
09:00−12юв2697100 0.1 1020162
12:00−8ююв2493100 0.1 1019236
15:00−5юв369599 0.1 1018399
18:00−6вюв3897100 0.1 1018236
21:00−7ю3894100 0.1 1018275